Tracking 21611 objects as of 21-Oct-2020
HD Live streaming from Space Station
objects crossing your sky now

COSMOS 2539

Track COSMOS 2539 now!


NORAD ID: 44457
Int'l Code: 2019-048A
Perigee: 35,791.1 km
Apogee: 35,795.8 km
Inclination: 0.0 °
Period: 1,436.1 minutes
Semi major axis: 42164 km
RCS: Unknown
Launch date: August 5, 2019
Source: Commonwealth of Independent States (former USSR) (CIS)
Launch site: TYURATAM MISSILE AND SPACE COMPLEX (TTMTR)
aabbcc
Your satellite tracking list
Your tracking list is empty




NASA's NSSDC Master Catalog

Two Line Element Set (TLE):
1 44457U 19048A   20295.10539190  .00000069  00000-0  00000+0 0  9996
2 44457   0.0243 120.5285 0000548 269.5173  49.9270  1.00272862  4528
Source of the keplerian elements: AFSPC